Temp
83 88 87 76 63 70 71 73 83 79 79 85 87 82 75 76 69 64 80 75 78 85 79 86 82 83 83 83 83 83 83 83 83 83 83 83 83 83 83 84 83 84 84 84 84 84 84 83 83
85 81 84 82 67 69 71 80 78 82 83 86 85 83 81 71 75 72 77 77 83 88 88 87 81 82 83 83 83 83 84 83 83 83 83 84 84 84 84 84 84 83 84 84 84 84 84 84 83
84 85 81 72 68 71 73 80 81 83 86 84 80 86 82 72 79 80 83 83 91 90 86 87 82 83 83 83 83 83 84 83 84 84 84 84 84 84 84 84 83 83 83 84 84 84 84 84 83
84 78 81 66 76 79 80 82 84 83 84 85 85 77 81 85 82 87 87 89 92 92 92 85 83 83 84 83 83 84 84 84 84 84 84 84 84 84 84 84 84 84 84 84 84 84 84 83 83
84 84 75 73 78 81 86 86 86 82 82 82 83 73 71 79 87 88 87 90 93 94 94 91 83 83 84 84 84 83 83 84 84 84 84 84 84 84 84 84 84 84 84 84 84 84 83 84 84
82 84 76 80 78 82 86 88 86 84 82 81 80 73 69 84 83 87 90 91 96 95 95 92 84 83 84 84 84 84 84 83 83 84 84 84 84 84 84 84 84 85 85 85 84 84 84 84 84
79 78 77 78 78 81 84 90 86 84 82 81 86 75 75 80 85 88 92 93 95 97 95 92 91 87 84 84 84 84 84 83 83 84 84 84 84 84 84 84 84 85 85 85 84 84 84 84 84
85 81 79 82 80 80 87 88 89 87 83 90 89 75 73 81 87 90 91 93 93 96 94 91 91 91 90 89 83 83 83 83 84 84 84 84 84 84 84 84 84 85 85 85 85 85 84 84 84
86 77 79 81 81 84 90 86 90 92 85 86 87 86 87 87 87 86 88 87 86 91 94 95 93 92 91 92 89 84 83 83 83 85 84 85 96 94 93 85 84 86 85 85 85 85 84 84 84
82 81 82 88 89 88 89 89 87 86 84 83 84 89 88 87 82 83 86 84 85 89 92 95 95 93 92 95 90 91 92 94 93 92 91 96 93 93 92 87 83 84 84 84 85 84 85 85 92
83 82 87 88 89 91 90 89 91 87 82 86 82 83 85 86 84 86 88 88 88 90 93 95 92 92 92 92 93 93 94 95 93 89 90 93 94 94 98 97 96 95 87 91 92 94 99 95 94
80 85 88 90 91 91 89 93 88 88 89 93 89 87 86 85 87 89 89 89 89 89 91 93 91 89 90 93 93 94 95 94 95 94 89 91 93 92 94 98 95 93 96 93 93 91 92 96 95
82 86 89 92 92 92 93 89 89 88 92 95 91 87 86 87 88 90 91 91 90 88 90 91 90 87 88 88 92 93 93 94 95 94 92 94 94 91 95 89 97 95 95 96 92 93 94 95 94
89 87 89 91 92 92 89 88 89 90 92 91 88 86 87 88 89 89 90 89 89 89 90 91 90 88 88 88 87 90 92 94 94 95 94 90 92 93 96 93 97 97 97 95 91 90 90 91 91
89 82 87 90 92 90 92 84 84 91 90 87 87 87 87 89 90 88 90 89 90 91 91 90 90 91 87 87 88 89 93 94 94 94 91 91 90 91 87 95 95 97 94 91 92 91 94 90 92
84 86 80 90 92 92 91 81 89 92 89 86 86 86 86 88 90 91 91 91 91 91 89 90 93 92 88 88 89 91 93 94 94 95 95 91 90 89 90 93 96 95 91 92 92 92 85 89 89
83 78 80 84 93 90 88 83 92 94 90 87 87 87 87 87 89 91 92 92 92 91 89 89 90 91 89 87 89 90 90 91 94 95 95 92 91 91 90 94 96 91 95 93 93 89 92 89 91
77 78 84 82 88 89 86 86 91 94 92 90 88 88 87 88 89 91 92 93 93 92 90 88 90 88 87 89 87 91 92 92 94 94 95 92 91 91 90 92 89 89 90 92 90 87 92 92 91
84 81 80 85 91 87 86 87 90 94 91 91 89 88 89 89 92 93 92 93 93 92 89 87 86 86 87 88 88 88 89 90 92 93 92 91 91 91 89 93 88 90 89 89 88 89 85 91 91
81 78 80 87 88 85 86 86 91 94 90 91 91 89 90 91 91 91 91 92 92 90 89 87 86 86 86 89 89 91 90 93 93 94 92 91 91 90 91 88 91 89 93 87 87 86 91 91 91
77 78 79 80 85 88 85 82 86 91 92 93 94 94 93 92 91 91 90 91 92 90 89 87 86 86 86 88 89 88 90 90 91 92 92 92 91 92 90 90 88 89 90 91 87 87 85 89 89
73 82 81 80 78 74 87 72 83 89 88 90 93 94 94 92 94 95 93 92 92 91 91 89 87 86 86 86 88 85 87 88 92 92 94 94 92 92 92 90 89 87 93 90 89 90 88 85 87
77 86 81 80 78 78 79 75 81 89 85 88 91 93 95 96 96 95 95 93 94 94 93 91 88 86 86 86 86 88 86 91 93 94 91 89 91 91 92 91 90 89 91 90 88 87 85 89 89
84 81 81 80 78 68 76 77 78 84 85 90 93 95 95 97 97 97 98 97 95 96 95 93 88 86 86 86 84 86 86 87 91 90 91 92 93 93 89 91 90 89 90 89 89 87 85 86 87
81 77 67 64 65 65 81 76 78 88 94 93 94 96 96 97 98 96 95 96 95 94 93 93 88 84 85 86 86 85 85 86 87 88 91 91 94 94 92 89 88 90 88 90 88 86 86 85 86
76 77 70 58 65 70 80 71 80 93 96 96 98 100 99 98 97 97 96 96 95 94 94 92 89 85 86 86 85 86 86 89 90 90 93 94 94 95 93 90 90 89 90 89 88 89 88 87 86
76 72 84 77 78 71 78 80 88 92 93 94 96 98 99 99 98 98 99 98 97 95 93 91 89 86 86 87 86 86 86 86 90 89 90 92 92 96 93 91 89 90 89 89 87 89 87 87 85
83 84 72 75 61 60 72 74 77 84 86 92 94 97 99 102 101 100 100 99 99 98 96 93 91 87 87 88 88 88 87 87 88 89 88 90 92 91 93 90 90 89 89 88 87 89 88 85 87
77 76 77 80 75 67 65 74 90 87 89 90 95 98 100 102 102 101 101 101 100 100 98 95 92 90 88 89 89 88 89 89 88 89 89 89 89 90 89 90 89 89 89 88 86 86 88 84 84
84 78 78 69 66 73 74 77 93 91 94 95 95 98 102 103 105 104 104 102 101 99 100 98 95 93 91 91 89 88 88 89 89 88 89 90 88 89 89 89 89 89 89 88 86 86 88 85 83
MSLP
1011.91 1011.68 1011.57 1011.93 1011.62 1009.53 1007.14 1006.27 1005.50 1005.38 1005.46 1006.02 1006.65 1007.12 1008.69 1010.01 1011.21 1012.90 1014.39 1015.21 1015.43 1015.24 1015.96 1015.86 1016.18 1016.39 1016.46 1016.64 1016.80 1016.99 1017.23 1017.38 1017.53 1017.77 1017.87 1018.03 1018.14 1018.20 1018.25 1018.29 1018.33 1018.34 1018.45 1018.56 1018.56 1018.66 1018.76 1018.78 1018.85
1011.50 1011.96 1011.37 1009.67 1008.82 1006.85 1005.84 1005.29 1004.85 1005.11 1005.94 1006.53 1007.22 1007.71 1008.39 1010.60 1011.80 1013.15 1013.81 1015.10 1015.03 1015.02 1015.38 1015.94 1016.45 1016.55 1016.71 1016.87 1017.08 1017.31 1017.53 1017.66 1017.84 1017.99 1018.19 1018.34 1018.43 1018.48 1018.55 1018.57 1018.58 1018.61 1018.64 1018.64 1018.70 1018.83 1018.87 1018.89 1018.98
1011.62 1011.39 1010.00 1009.08 1007.16 1005.38 1004.67 1004.82 1005.11 1005.65 1006.36 1006.66 1007.39 1007.82 1008.87 1010.89 1011.83 1012.66 1013.72 1014.57 1014.03 1014.74 1015.57 1016.08 1016.48 1016.64 1016.93 1017.11 1017.35 1017.60 1017.78 1017.95 1018.09 1018.27 1018.45 1018.57 1018.67 1018.74 1018.74 1018.76 1018.76 1018.80 1018.85 1018.86 1018.93 1018.98 1018.99 1019.02 1019.11
1010.64 1010.89 1009.67 1008.36 1005.03 1004.90 1004.30 1004.65 1005.32 1005.83 1006.61 1007.16 1007.49 1008.64 1010.43 1011.00 1011.73 1012.17 1013.59 1013.61 1013.95 1014.50 1015.04 1016.36 1016.53 1016.82 1017.04 1017.34 1017.58 1017.77 1017.96 1018.12 1018.31 1018.46 1018.62 1018.74 1018.84 1018.87 1018.91 1018.94 1018.95 1018.96 1019.03 1019.08 1019.10 1019.15 1019.17 1019.15 1019.17
1010.19 1009.01 1007.13 1006.04 1004.48 1004.16 1004.13 1004.72 1005.25 1005.51 1006.41 1007.23 1007.87 1009.46 1011.20 1012.12 1012.07 1012.80 1013.53 1013.49 1013.69 1014.21 1015.00 1016.08 1016.73 1016.94 1017.26 1017.54 1017.75 1017.97 1018.19 1018.33 1018.52 1018.69 1018.80 1018.94 1018.99 1019.05 1019.09 1019.15 1019.15 1019.12 1019.16 1019.17 1019.23 1019.35 1019.32 1019.24 1019.22
1008.31 1007.90 1005.63 1003.58 1003.74 1003.82 1004.14 1004.75 1005.13 1005.57 1006.66 1007.64 1008.34 1010.01 1011.68 1012.23 1012.59 1012.92 1013.32 1013.38 1013.39 1014.11 1014.84 1016.00 1016.92 1017.16 1017.46 1017.69 1017.94 1018.12 1018.40 1018.52 1018.71 1018.89 1018.99 1019.08 1019.15 1019.24 1019.26 1019.27 1019.26 1019.22 1019.24 1019.30 1019.40 1019.47 1019.42 1019.36 1019.37
1007.83 1006.87 1004.76 1003.88 1003.41 1003.11 1003.91 1004.57 1004.72 1005.52 1006.59 1007.37 1008.30 1009.42 1011.49 1012.26 1012.61 1013.16 1013.11 1013.36 1013.53 1014.13 1014.75 1015.78 1016.42 1017.12 1017.57 1017.88 1018.09 1018.33 1018.49 1018.62 1018.84 1018.96 1019.05 1019.15 1019.27 1019.34 1019.37 1019.36 1019.38 1019.35 1019.34 1019.42 1019.52 1019.57 1019.52 1019.49 1019.44
1007.70 1006.73 1004.12 1003.07 1002.43 1002.85 1003.79 1004.25 1005.00 1005.48 1006.41 1007.64 1008.27 1009.23 1010.57 1011.84 1012.37 1012.87 1013.23 1013.44 1013.73 1014.13 1014.99 1015.68 1016.27 1016.77 1017.15 1017.66 1018.22 1018.39 1018.56 1018.71 1018.87 1018.98 1019.09 1019.16 1019.18 1019.20 1019.27 1019.17 1019.26 1019.38 1019.40 1019.41 1019.51 1019.53 1019.51 1019.51 1019.52
1007.69 1005.89 1003.07 1002.53 1002.38 1002.56 1003.60 1004.04 1005.07 1005.85 1006.77 1007.45 1008.16 1008.52 1010.03 1011.80 1012.43 1012.87 1013.14 1013.65 1014.30 1014.34 1014.86 1015.42 1016.07 1016.57 1016.84 1017.19 1017.93 1018.45 1018.66 1018.80 1018.92 1018.91 1019.04 1018.87 1017.92 1018.25 1018.27 1019.12 1019.33 1019.30 1019.39 1019.36 1019.32 1019.40 1019.43 1019.33 1019.39
1006.33 1004.08 1002.69 1002.82 1002.67 1002.16 1003.19 1003.59 1004.72 1005.45 1006.47 1007.22 1008.06 1008.90 1010.54 1011.67 1012.58 1012.68 1012.81 1013.62 1014.33 1014.21 1014.73 1015.26 1015.67 1016.26 1016.83 1016.81 1017.59 1017.81 1017.88 1017.92 1018.01 1018.14 1018.40 1018.05 1018.40 1018.54 1018.67 1019.05 1019.40 1019.36 1019.35 1019.27 1019.22 1019.22 1019.07 1018.78 1018.16
1005.33 1003.56 1003.05 1002.79 1002.90 1002.61 1002.78 1003.36 1004.20 1004.81 1005.67 1006.56 1007.72 1009.09 1010.30 1011.37 1012.29 1012.38 1012.63 1013.19 1013.66 1014.12 1014.59 1015.08 1015.71 1016.30 1016.62 1016.67 1017.26 1017.35 1017.56 1017.58 1018.01 1018.49 1018.60 1018.44 1018.51 1018.44 1018.22 1018.20 1018.19 1018.38 1018.99 1018.34 1018.47 1018.42 1017.77 1018.14 1017.93
1004.60 1003.96 1003.22 1002.76 1002.86 1002.55 1002.49 1002.87 1003.79 1004.60 1004.85 1005.99 1007.61 1009.03 1009.80 1010.73 1011.27 1011.70 1012.28 1012.85 1013.43 1014.12 1014.63 1015.12 1015.80 1016.44 1016.67 1016.75 1017.04 1017.06 1017.23 1017.58 1017.58 1017.92 1018.63 1018.66 1018.36 1018.43 1018.37 1017.85 1018.34 1018.64 1018.25 1018.58 1018.57 1018.36 1018.71 1018.26 1018.34
1004.24 1003.27 1002.96 1002.66 1002.57 1002.37 1002.43 1002.88 1003.21 1004.35 1005.13 1006.04 1007.51 1008.87 1009.72 1010.36 1010.96 1011.49 1012.14 1012.82 1013.47 1014.07 1014.63 1015.14 1015.79 1016.48 1016.79 1017.08 1016.86 1016.95 1017.21 1017.51 1017.42 1017.90 1018.32 1018.37 1018.22 1018.37 1018.26 1018.79 1018.14 1018.42 1018.31 1018.62 1018.83 1018.84 1018.79 1018.54 1018.23
1002.94 1003.20 1002.57 1002.21 1001.95 1001.94 1002.10 1002.72 1003.42 1004.10 1005.25 1006.10 1007.40 1008.43 1009.31 1009.87 1010.44 1011.15 1011.77 1012.43 1013.24 1013.92 1014.39 1015.00 1015.70 1016.20 1016.67 1016.97 1017.21 1017.28 1017.47 1017.31 1017.67 1017.65 1017.93 1018.59 1018.41 1018.28 1018.03 1018.59 1017.97 1018.13 1018.24 1018.34 1018.91 1018.97 1018.78 1018.87 1018.81
1003.11 1002.82 1002.25 1001.77 1001.51 1001.36 1001.80 1002.26 1002.76 1003.69 1005.08 1005.99 1006.98 1008.10 1008.85 1009.53 1010.15 1010.62 1011.32 1012.12 1012.97 1013.64 1014.23 1014.76 1015.43 1015.84 1016.51 1016.76 1017.08 1017.30 1017.20 1017.37 1017.45 1017.57 1018.04 1018.27 1018.46 1018.24 1018.52 1017.99 1017.95 1017.95 1018.46 1019.13 1019.04 1019.06 1018.77 1018.75 1019.10
1002.68 1002.21 1000.97 1000.35 1000.80 1000.95 1001.48 1000.20 1001.85 1003.43 1004.50 1005.45 1006.56 1007.48 1008.31 1009.00 1009.60 1010.27 1011.02 1011.79 1012.56 1013.20 1013.93 1014.67 1014.99 1015.42 1016.15 1016.44 1016.75 1016.90 1016.94 1017.08 1017.18 1017.28 1017.47 1018.02 1018.30 1018.48 1018.39 1017.93 1017.73 1017.97 1018.74 1019.09 1018.93 1019.08 1019.15 1019.07 1019.06
1001.43 1000.24 1000.00 999.55 1000.10 1000.23 1000.84 999.97 1000.61 1002.51 1003.58 1004.50 1005.75 1006.57 1007.44 1008.38 1009.05 1009.69 1010.42 1011.30 1011.90 1012.83 1013.63 1014.32 1014.81 1015.03 1015.67 1016.17 1016.38 1016.70 1016.80 1017.12 1016.95 1016.99 1017.10 1017.45 1017.96 1018.11 1018.27 1017.64 1017.54 1018.40 1018.07 1018.26 1018.71 1019.00 1018.65 1018.84 1018.89
999.86 999.91 998.95 998.92 999.67 999.95 1000.00 999.89 1000.31 1001.34 1002.50 1003.36 1004.85 1005.65 1006.45 1007.18 1007.93 1008.93 1009.81 1010.65 1011.39 1012.19 1013.18 1014.04 1014.49 1014.92 1015.43 1015.79 1016.29 1016.23 1016.36 1016.60 1016.64 1016.70 1016.78 1017.18 1017.63 1017.70 1017.92 1017.69 1018.17 1018.36 1018.56 1018.56 1018.91 1018.97 1018.84 1018.75 1018.72
1000.05 999.83 999.17 999.06 998.98 999.54 999.32 999.25 999.61 1000.36 1001.72 1002.30 1003.68 1004.66 1005.31 1005.97 1007.15 1008.23 1009.25 1010.04 1010.81 1011.55 1012.45 1013.31 1014.02 1014.51 1015.02 1015.30 1015.42 1015.70 1015.75 1016.06 1016.26 1016.31 1016.66 1016.99 1017.23 1017.29 1017.55 1017.30 1017.89 1018.05 1018.28 1018.43 1018.84 1018.99 1019.17 1018.53 1019.00
1000.54 1000.12 999.39 998.95 999.14 999.77 999.06 998.60 998.93 999.20 1000.38 1001.23 1002.23 1003.48 1004.15 1005.08 1006.11 1007.30 1008.34 1009.12 1009.87 1010.70 1011.52 1012.47 1013.29 1014.04 1014.57 1014.61 1014.88 1015.08 1015.36 1015.35 1015.56 1015.76 1016.10 1016.56 1016.73 1016.99 1017.15 1017.33 1017.46 1017.78 1017.50 1018.45 1018.64 1018.91 1018.43 1018.59 1018.83
1000.39 999.70 999.39 999.19 999.22 999.34 999.06 998.41 998.28 999.00 999.71 1000.34 1001.08 1001.95 1003.36 1004.02 1004.99 1006.19 1007.25 1007.98 1008.85 1009.76 1010.76 1011.68 1012.64 1013.35 1014.04 1014.21 1014.67 1015.10 1015.23 1015.32 1015.18 1015.32 1015.67 1016.04 1016.37 1016.52 1016.81 1017.06 1017.51 1017.62 1017.86 1017.58 1018.38 1018.61 1018.77 1018.05 1018.78
999.60 1000.06 1000.02 999.69 999.64 998.38 998.43 997.18 996.85 997.54 998.51 999.32 999.94 1000.73 1001.64 1002.97 1003.94 1004.92 1006.05 1007.08 1007.79 1008.66 1009.79 1010.80 1011.92 1012.75 1013.35 1013.98 1013.92 1014.23 1014.29 1014.23 1014.39 1014.73 1014.97 1015.23 1015.79 1016.12 1016.33 1016.77 1017.15 1017.54 1016.99 1017.41 1017.88 1018.24 1018.32 1018.57 1018.12
999.21 999.53 1000.06 1000.03 999.52 999.10 997.97 997.51 996.20 996.23 996.84 997.81 998.67 999.44 1000.32 1001.33 1002.40 1003.36 1004.46 1005.59 1006.46 1007.67 1008.68 1009.78 1011.00 1011.91 1012.46 1013.09 1013.40 1013.65 1013.95 1013.80 1013.98 1014.26 1014.52 1015.04 1015.14 1015.72 1015.89 1016.22 1016.66 1017.03 1017.03 1017.20 1017.69 1018.10 1018.40 1018.27 1018.04
999.69 999.66 999.78 999.95 999.34 997.71 997.06 996.72 995.24 995.12 995.83 996.40 997.27 998.22 999.15 999.95 1001.17 1002.26 1003.18 1004.50 1005.67 1006.75 1007.79 1008.78 1009.88 1010.76 1011.70 1012.23 1012.86 1013.03 1013.12 1013.38 1013.35 1013.69 1013.95 1014.41 1014.74 1015.03 1015.53 1015.74 1016.19 1016.47 1016.54 1016.90 1017.31 1017.78 1018.18 1018.27 1018.33
998.98 998.83 998.21 998.25 997.22 995.36 996.09 995.61 994.57 994.46 994.50 995.33 995.70 996.63 997.82 998.86 999.77 1000.91 1002.18 1003.26 1004.41 1005.55 1006.58 1007.54 1008.64 1009.63 1010.54 1011.27 1011.77 1012.32 1012.70 1013.10 1013.20 1013.31 1013.54 1013.56 1013.71 1014.01 1014.49 1015.35 1015.76 1016.05 1016.31 1016.37 1016.76 1017.38 1017.64 1018.08 1018.09
997.24 997.04 995.57 994.99 994.58 994.92 995.42 993.56 993.14 993.98 994.46 994.75 995.05 995.22 996.53 997.67 998.79 999.64 1000.85 1002.01 1003.08 1004.11 1005.26 1006.48 1007.51 1008.65 1009.49 1010.16 1010.68 1011.30 1011.94 1012.40 1012.73 1012.91 1012.90 1013.00 1013.16 1013.30 1013.97 1014.66 1014.99 1015.42 1015.63 1016.05 1016.39 1016.78 1017.15 1017.47 1017.92
996.00 995.89 995.72 994.52 994.33 994.16 992.99 993.20 993.57 993.46 993.42 993.85 994.32 994.66 995.01 996.18 997.33 998.54 999.48 1000.66 1001.79 1003.02 1004.10 1005.12 1006.14 1007.37 1008.29 1008.78 1009.56 1010.20 1010.85 1011.38 1011.43 1011.92 1012.33 1012.70 1012.78 1012.78 1013.40 1014.04 1014.53 1014.75 1015.03 1015.46 1016.01 1016.24 1016.61 1016.88 1017.39
994.41 995.89 995.38 994.49 993.74 993.19 992.63 992.27 991.70 991.99 992.69 992.96 993.19 993.59 994.11 994.84 995.88 997.14 998.21 999.12 1000.21 1001.28 1002.55 1003.89 1005.06 1005.84 1006.34 1007.29 1008.21 1008.91 1009.58 1010.26 1010.74 1011.15 1011.55 1011.66 1011.95 1012.44 1012.55 1013.34 1013.85 1014.27 1014.62 1015.05 1015.54 1015.61 1016.07 1016.55 1016.76
994.18 994.00 994.25 994.13 993.75 992.66 992.25 991.06 990.87 991.43 991.88 992.25 992.39 992.80 993.21 993.69 994.67 995.79 996.75 997.83 998.86 999.97 1001.26 1002.53 1003.81 1004.66 1005.55 1006.31 1006.87 1007.64 1008.20 1008.92 1009.59 1009.99 1010.36 1010.82 1011.30 1011.71 1012.23 1012.56 1013.19 1013.59 1013.99 1014.48 1014.89 1015.10 1015.16 1015.87 1016.24
993.21 993.27 993.45 992.96 993.15 993.14 992.09 990.70 991.08 991.42 991.41 991.88 992.13 992.38 992.77 993.17 993.66 994.79 995.60 996.80 997.85 998.79 999.74 1000.60 1001.91 1003.09 1004.00 1004.89 1005.69 1006.21 1006.88 1007.58 1008.07 1008.56 1009.10 1009.75 1010.26 1010.87 1011.36 1011.86 1012.31 1012.67 1013.08 1013.60 1014.03 1014.32 1014.33 1014.90 1015.39
Wind_Speed
14 13 7 6 4 5 1 5 2 8 6 4 12 2 9 11 6 9 20 13 12 16 9 15 15 17 18 17 16 16 16 15 14 13 13 13 11 11 11 11 11 11 11 10 10 8 8 8 7
12 6 4 4 5 2 6 3 5 7 9 10 10 7 8 7 4 11 16 18 17 19 15 16 16 17 17 16 15 14 15 14 13 13 13 12 11 11 10 10 10 10 9 9 9 7 7 6 6
13 6 5 4 3 3 5 5 7 9 10 6 5 6 5 6 14 17 20 22 20 16 14 17 16 16 16 16 15 14 14 13 13 12 12 11 11 10 9 9 8 7 8 7 8 6 6 6 6
9 4 5 5 5 7 7 6 9 10 7 3 8 11 9 7 14 14 26 21 21 17 18 16 16 16 16 15 15 14 13 13 12 11 10 10 9 9 9 9 8 8 7 7 6 5 5 4 3
4 4 6 8 6 5 6 10 6 4 3 7 5 8 9 9 13 25 21 18 19 18 18 16 14 14 14 14 14 13 12 12 11 10 9 8 8 8 9 8 7 8 8 7 7 5 5 4 4
6 4 7 2 7 5 8 10 5 5 8 7 8 14 5 14 21 20 21 19 18 18 18 17 14 13 13 13 13 12 11 11 9 9 8 7 7 7 6 7 7 7 7 6 6 5 4 5 5
8 5 4 2 5 7 10 8 4 7 9 9 16 11 10 18 20 20 19 18 17 18 16 15 14 13 12 11 11 11 10 9 8 7 7 6 6 5 5 5 5 5 4 3 3 4 2 3 5
4 5 8 4 5 12 10 7 7 8 8 14 12 9 15 21 22 20 18 18 17 17 16 14 13 13 11 11 10 9 8 7 6 6 5 4 6 4 4 5 5 3 3 2 4 4 3 3 6
4 7 8 5 4 10 12 11 7 7 13 7 5 9 22 24 21 20 20 16 12 14 16 15 14 12 10 10 10 9 7 6 6 7 5 9 3 4 6 9 3 3 3 4 4 4 4 5 9
9 9 2 5 1 5 12 8 11 9 14 11 8 17 25 26 20 21 21 18 18 18 17 15 14 13 10 8 10 7 8 8 6 4 4 3 4 3 5 3 2 2 2 3 1 2 5 11 8
8 6 1 3 3 4 11 9 8 9 12 14 15 23 27 25 21 21 20 19 20 18 15 16 13 12 11 7 7 5 5 4 5 5 4 2 1 2 2 1 5 5 5 4 7 6 0 4 3
9 10 6 5 5 1 5 8 9 10 6 14 17 24 27 26 23 22 21 20 18 18 16 15 14 11 11 7 7 6 5 5 4 5 4 2 4 3 1 2 3 3 3 3 3 3 5 0 3
16 8 7 9 8 6 6 9 7 10 6 16 20 24 25 23 23 20 20 19 18 18 17 15 14 12 10 8 6 6 5 6 6 5 5 3 3 1 3 4 2 2 4 1 3 0 1 2 5
9 14 9 8 8 5 9 8 9 11 9 18 21 24 24 24 24 20 20 19 18 17 17 16 15 14 12 10 8 6 6 5 5 5 4 5 5 2 1 2 1 1 2 5 5 4 1 3 5
11 10 11 12 11 7 8 11 13 15 15 18 21 21 23 23 23 22 21 19 18 16 17 16 16 15 13 12 10 8 6 7 6 6 5 6 5 5 3 1 3 1 3 1 1 1 1 5 1
14 15 14 16 14 8 14 11 16 17 17 19 21 21 22 23 24 21 20 19 19 17 17 16 14 16 15 12 9 8 7 7 6 6 6 7 7 6 5 4 2 3 3 1 1 1 4 3 3
13 14 19 11 16 9 15 9 17 19 19 19 21 22 22 22 23 22 22 20 19 18 17 17 16 15 15 13 10 10 9 8 7 7 6 7 8 8 7 5 1 2 2 3 1 5 2 4 1
17 18 16 16 15 13 16 15 6 19 19 19 20 21 22 23 25 22 22 21 20 19 17 16 15 15 14 10 9 9 9 9 8 8 7 6 7 9 8 5 3 4 3 2 1 5 2 2 3
13 12 18 15 9 13 16 14 12 14 18 19 20 21 22 23 22 22 21 21 20 19 19 19 18 16 13 12 11 10 10 9 9 8 9 7 7 8 8 7 4 5 4 3 3 3 4 2 2
22 16 19 13 6 9 16 15 13 13 19 20 20 21 22 21 22 23 23 22 22 21 20 19 19 17 15 12 10 9 9 10 10 9 9 9 7 7 7 7 7 5 1 4 4 4 1 0 2
23 23 18 15 11 14 13 15 15 11 15 18 20 21 20 22 23 24 24 25 23 23 22 20 19 18 16 15 10 9 9 9 9 10 9 10 10 9 9 7 5 7 5 4 4 5 4 0 1
25 23 18 16 12 13 16 14 19 20 17 18 20 20 23 24 24 23 24 24 24 23 22 21 19 19 17 17 13 13 12 11 11 10 10 9 11 10 9 7 7 8 6 3 4 4 4 4 3
20 17 18 21 18 17 21 11 16 12 18 19 20 22 22 25 25 25 26 27 26 24 22 21 20 19 18 17 16 13 14 12 9 10 9 10 9 12 11 10 9 9 8 7 5 5 6 4 5
10 18 14 15 16 20 23 21 16 17 18 18 20 21 23 23 25 25 25 25 23 22 21 20 20 19 19 19 20 16 15 14 12 11 9 9 9 10 12 12 10 9 9 7 7 7 7 6 4
23 21 11 15 18 20 19 22 18 9 17 20 19 21 22 23 24 25 25 23 24 25 24 21 20 20 20 21 20 20 19 16 15 12 11 10 10 9 10 12 12 10 10 8 8 8 7 8 7
29 25 13 20 15 18 18 17 20 21 20 7 18 17 20 22 22 24 26 25 24 26 24 23 21 21 22 22 21 18 19 15 14 14 13 11 11 10 10 12 13 13 11 10 9 8 8 8 8
25 28 24 18 8 10 14 20 16 13 18 23 20 17 20 21 22 24 26 27 25 24 23 24 23 22 22 23 19 19 18 19 16 16 13 13 11 11 11 13 14 14 13 12 11 9 9 9 9
19 23 23 18 22 20 13 18 13 18 23 19 22 23 19 20 22 23 23 26 25 26 25 25 24 23 25 23 20 18 19 19 18 15 16 15 13 14 13 14 15 14 13 13 13 11 11 11 9
23 19 23 17 17 14 14 13 16 16 17 22 21 20 21 20 20 22 22 23 24 23 24 25 24 24 23 22 21 19 19 21 19 18 18 17 16 14 16 14 15 15 14 14 14 13 12 14 13
27 24 27 15 23 20 16 9 8 4 12 18 18 18 20 18 18 18 19 20 21 23 24 25 25 25 24 21 20 21 20 20 20 20 20 18 18 17 16 16 16 16 16 15 16 17 15 16 16
Wind_Direction
168 176 180 193 231 244 230 88 10 116 116 48 129 20 95 35 22 88 153 133 160 133 145 144 136 130 124 122 122 122 122 123 122 117 111 101 100 89 83 81 73 74 86 85 96 100 102 109 105
162 157 243 257 258 249 93 91 115 69 96 114 117 126 138 75 98 127 137 160 158 142 140 137 136 130 124 123 122 122 125 122 118 110 108 104 96 89 88 84 81 80 78 84 87 91 95 102 103
150 207 267 271 234 19 84 73 83 101 131 143 106 49 68 86 121 145 128 162 161 138 148 129 134 126 130 127 124 125 124 120 116 112 108 103 98 97 91 84 79 88 96 94 91 87 83 85 87
173 204 233 260 85 90 52 105 117 128 122 136 126 102 88 105 134 134 148 165 144 143 140 139 130 134 132 129 127 127 125 121 114 112 109 105 102 96 83 77 84 95 93 92 91 88 77 78 91
238 223 250 238 88 90 68 121 154 112 100 147 162 107 99 122 131 136 149 160 149 147 134 140 137 136 131 133 129 125 120 118 117 114 114 110 101 87 81 84 82 85 85 90 88 83 97 104 92
226 261 246 227 80 101 96 133 144 88 112 114 131 124 104 135 143 146 157 161 150 145 149 139 140 137 138 134 130 126 128 122 118 121 119 112 104 93 79 74 75 75 79 83 88 85 65 68 76
266 266 296 271 93 133 126 147 154 121 139 130 136 128 124 144 152 150 160 157 152 150 146 152 152 143 140 138 133 131 125 122 129 129 123 119 112 100 84 72 68 77 75 84 94 93 85 83 101
256 263 237 164 81 104 132 146 115 139 99 120 138 159 156 154 157 156 158 159 157 155 150 156 157 159 161 154 146 135 134 138 143 137 140 146 147 146 147 173 97 74 73 74 83 104 105 84 113
207 242 234 131 195 116 145 134 125 99 138 164 158 148 143 154 157 157 160 156 154 165 166 165 166 165 169 159 143 153 156 160 166 174 170 202 156 126 162 68 40 86 78 73 81 105 125 155 137
228 265 103 43 36 157 161 165 143 152 152 146 134 114 144 156 163 169 163 163 169 174 172 172 176 165 171 172 149 176 163 182 187 178 167 221 76 50 333 99 120 103 81 114 113 147 207 213 167
189 260 114 183 197 258 161 176 149 146 174 163 151 147 156 160 174 176 171 173 174 172 178 175 181 171 183 170 175 177 182 175 174 194 217 97 314 118 228 156 175 164 181 208 193 190 266 48 58
237 239 267 116 129 277 203 155 173 177 92 154 153 160 160 168 175 177 177 177 177 176 183 178 177 182 194 173 189 183 187 190 207 179 196 207 224 170 270 355 90 211 63 59 342 69 17 162 130
228 239 223 230 255 268 209 194 189 181 136 145 151 165 170 174 177 179 182 179 181 180 183 182 179 185 192 195 186 210 207 197 204 194 183 248 257 208 270 31 285 4 122 179 110 63 253 338 71
182 238 252 259 243 221 193 174 187 165 153 148 160 170 177 181 181 180 185 184 186 184 185 183 188 187 193 198 198 201 212 204 227 214 202 207 260 216 105 233 207 121 355 31 11 18 355 15 16
242 235 218 235 229 175 207 168 200 143 164 160 168 175 181 187 184 186 188 189 189 188 186 191 192 190 194 197 197 209 204 212 216 221 208 226 232 206 296 256 272 10 73 69 108 270 211 141 111
218 223 230 210 197 183 206 208 183 161 172 172 172 177 183 190 190 190 191 192 188 193 191 197 197 191 193 197 195 212 210 222 216 219 216 209 230 241 242 237 241 51 159 169 234 286 236 56 228
202 211 215 164 190 174 209 226 154 174 183 179 180 179 185 189 196 192 193 195 192 195 192 197 201 200 195 197 201 208 204 219 223 221 221 201 227 226 245 252 223 210 291 161 64 238 14 138 139
202 219 204 210 187 203 207 244 164 177 201 190 189 184 187 192 197 193 196 195 197 192 197 200 201 207 198 200 205 210 210 216 219 218 225 222 235 239 230 238 252 248 124 204 149 310 85 344 4
236 217 224 204 166 219 232 237 232 190 203 202 188 196 194 197 192 194 196 196 198 199 196 198 203 199 200 200 200 205 210 206 214 218 223 233 233 229 222 244 184 218 206 284 203 193 207 184 88
230 227 228 222 177 242 251 237 235 193 209 210 195 201 203 192 191 194 195 198 199 199 201 200 204 202 205 201 207 209 211 209 212 213 216 220 222 217 226 234 238 186 214 207 213 220 252 348 105
224 223 223 232 203 237 256 252 241 213 204 211 209 205 203 200 196 192 195 199 198 199 201 202 202 204 206 215 201 202 219 229 209 219 214 208 218 218 221 228 219 218 252 191 206 204 237 241 175
220 222 243 242 230 237 197 253 220 215 201 208 210 206 198 205 198 193 196 200 199 201 201 203 201 204 204 205 203 205 208 210 216 214 215 221 214 224 227 227 215 220 231 265 205 215 253 249 193
230 220 220 236 246 255 249 248 253 205 214 208 210 205 207 197 199 199 196 199 201 200 201 201 201 204 208 199 219 199 217 213 218 221 220 213 215 223 230 228 217 215 223 197 241 192 223 188 286
212 228 224 231 236 239 237 244 244 239 212 220 210 211 207 204 202 202 201 199 203 201 201 199 199 203 203 202 204 213 209 220 213 212 214 224 217 213 221 227 225 221 224 217 206 202 205 234 236
203 199 197 213 221 238 233 233 235 248 235 214 222 206 208 202 202 200 202 200 200 201 202 202 198 200 200 204 206 210 214 210 221 219 212 230 220 220 217 212 214 214 214 219 212 194 204 203 209
198 208 213 212 219 226 215 239 235 232 235 262 229 210 203 202 205 203 200 202 201 203 200 202 197 201 201 203 206 206 210 215 218 221 236 223 231 221 214 202 215 216 217 215 203 204 212 202 209
194 217 223 252 215 266 230 216 244 250 228 222 215 217 211 200 201 205 204 204 203 202 202 200 199 198 201 204 203 206 207 214 215 222 212 230 227 229 213 209 213 214 213 212 207 225 204 208 208
211 201 215 225 240 243 231 237 233 212 218 222 219 216 209 206 201 205 207 206 205 203 202 200 202 201 200 202 204 205 208 210 213 213 218 216 223 220 221 206 213 213 213 214 211 215 210 210 210
200 207 217 225 224 226 237 240 224 230 215 219 218 215 215 210 200 203 207 207 207 209 203 204 204 205 202 203 205 207 207 209 210 213 212 215 213 214 213 206 211 214 214 211 211 223 218 210 213
204 205 204 214 209 239 270 242 119 241 228 218 222 217 219 214 210 207 208 206 205 207 211 205 206 208 207 205 203 203 204 206 209 210 212 209 211 210 209 209 206 210 213 211 212 214 215 212 213